Location: Hope
(40.9110°N, 74.9680°W)
Time: 01:55:36
(UTC-04:00)

VELOX 1 - Pass Details

Date: 01 August 2021
Orbit: 626 x 643 km, 98.3° (Epoch: 19 September)

Event Time Altitude Azimuth Distance (km) Brightness Sun altitude
Exits shadow 04:21:55 - 166° (SSE) 2,516 ? -15.7°
Reaches altitude 10° 04:23:07 10° 167° (SSE) 2,020 ? -15.6°
Maximum altitude 04:27:31 87° 257° (WSW) 647 ? -14.9°
Drops below altitude 10° 04:31:59 10° 346° (NNW) 2,044 ? -14.3°
Sets 04:34:13 0° 347° (NNW) 2,960 ? -14.0°
